sat.trackr.live / text

‹ back to catalog

STARLINK-30243

NORAD 57648 · 2023-122S

PAYLOAD ACTIVE UNKNOWN

§ Identity

Operator
Country
US
Launch date
2023-08-17
Launch site
AFETR
Launch vehicle
Mass (kg)
RCS (m²)

Purposes: comms

External: N2YO · Heavens-Above · Gunter

§ Orbital elements

Epoch: 2026-05-25T01:08:35.599200Z

Period
94.27 min
Inclination
43.0053°
Eccentricity
0.0001789
Mean motion
15.27586954 rev/d
Perigee alt
481.8 km
Apogee alt
484.3 km
Semi-major
6,861.2 km
B*
-5.9886e-5
RAAN
21.3814°
Arg perigee
264.7308°
Mean anomaly
95.3339°
Rev number
15,388

§ Raw data

STARLINK-302431 57648U 23122S   26145.04763425 -.00001910  00000+0 -59886-4 0  99912 57648  43.0053  21.3814 0001789 264.7308  95.3339 15.27586954153880

JSON: /api/v1/satellites/57648 · /tle

For live sub-satellite position, see the globe view (requires WebGL).

§ Visibility from observer

Set your observer location to see the next 7 days of passes ≥ 10°. The values pass through the URL so the page stays shareable.

No JS? Fill the form by hand. The geolocation button needs JavaScript.